| time (UTC) | temp C | wind direction | speed KPH | gust KPH | rain 1hr cm | rain 24hr cm | rain mn cm | humidity % | barometer mb |
| 20260504033046 | 12 | 216 | 0.0 | 1.6 | 0.00 | 0.00 | 0.00 | 77 | 1016.4 |
| 20260504031603 | 11 | 216 | 0.0 | 1.6 | 0.00 | 0.00 | 0.00 | 79 | 1016.6 |
| 20260504030044 | 11 | 216 | 0.0 | 1.6 | 0.00 | 0.00 | 0.00 | 80 | 1016.8 |
| 20260504024545 | 11 | 216 | 0.0 | 1.6 | 0.00 | 0.00 | 0.00 | 79 | 1016.7 |
| 20260504023043 | 12 | 216 | 0.0 | 0.0 | 0.00 | 0.00 | 0.00 | 77 | 1016.7 |
| 20260504021542 | 12 | 216 | 0.0 | 0.0 | 0.00 | 0.00 | 0.00 | 75 | 1016.6 |
| 20260504020043 | 12 | 216 | 0.0 | 0.0 | 0.00 | 0.00 | 0.00 | 73 | 1016.5 |
| 20260504014544 | 13 | 216 | 0.0 | 0.0 | 0.00 | 0.00 | 0.00 | 71 | 1016.3 |
| 20260504013041 | 14 | 216 | 0.0 | 0.0 | 0.00 | 0.00 | 0.00 | 68 | 1016.1 |
| 20260504011546 | 15 | 216 | 0.0 | 0.0 | 0.00 | 0.00 | 0.00 | 64 | 1016.1 |
| 20260504010045 | 16 | 216 | 0.0 | 0.0 | 0.00 | 0.00 | 0.00 | 61 | 1016.3 |
| 20260504004540 | 17 | 216 | 0.0 | 0.0 | 0.00 | 0.00 | 0.00 | 55 | 1016.1 |
| 20260504003045 | 18 | 216 | 0.0 | 0.0 | 0.00 | 0.00 | 0.00 | 52 | 1016.2 |
| 20260504001552 | 19 | 216 | 0.0 | 1.6 | 0.00 | 0.00 | 0.00 | 48 | 1016.2 |
| 20260504000037 | 20 | 216 | 0.0 | 6.4 | 0.00 | 0.00 | 0.00 | 46 | 1016.1 |
| 20260503234536 | 20 | 222 | 0.0 | 6.4 | 0.00 | 0.00 | 0.00 | 45 | 1016.3 |
| 20260503233035 | 21 | 224 | 0.0 | 8.0 | 0.00 | 0.00 | 0.00 | 44 | 1016.6 |
| 20260503231545 | 21 | 173 | 4.8 | 17.7 | 0.00 | 0.00 | 0.00 | 42 | 1016.4 |
| 20260503230033 | 22 | 215 | 0.0 | 12.9 | 0.00 | 0.00 | 0.00 | 40 | 1016.4 |
| 20260503224531 | 22 | 249 | 3.2 | 12.9 | 0.00 | 0.00 | 0.00 | 40 | 1016.9 |
| 20260503223029 | 22 | 194 | 3.2 | 16.1 | 0.00 | 0.00 | 0.00 | 39 | 1016.9 |
| 20260503221527 | 22 | 165 | 6.4 | 17.7 | 0.00 | 0.00 | 0.00 | 40 | 1017.1 |
| 20260503220034 | 22 | 209 | 1.6 | 12.9 | 0.00 | 0.00 | 0.00 | 40 | 1017.1 |
| 20260503214522 | 22 | 188 | 4.8 | 12.9 | 0.00 | 0.00 | 0.00 | 40 | 1017.4 |
| 20260503213022 | 23 | 205 | 1.6 | 9.7 | 0.00 | 0.00 | 0.00 | 38 | 1017.8 |
| 20260503211522 | 22 | 205 | 1.6 | 16.1 | 0.00 | 0.00 | 0.00 | 42 | 1018.1 |
| 20260503210017 | 22 | 239 | 1.6 | 8.0 | 0.00 | 0.00 | 0.00 | 39 | 1018.3 |
| 20260503204510 | 22 | 211 | 4.8 | 12.9 | 0.00 | 0.00 | 0.00 | 39 | 1018.6 |
| 20260503203014 | 22 | 286 | 3.2 | 12.9 | 0.00 | 0.00 | 0.00 | 37 | 1018.8 |
| 20260503201510 | 22 | 209 | 4.8 | 11.3 | 0.00 | 0.00 | 0.00 | 40 | 1019.0 |
| 20260503200006 | 22 | 217 | 3.2 | 9.7 | 0.00 | 0.00 | 0.00 | 40 | 1019.1 |
| 20260503194506 | 22 | 187 | 3.2 | 12.9 | 0.00 | 0.00 | 0.00 | 40 | 1019.3 |
| 20260503193059 | 21 | 208 | 3.2 | 11.3 | 0.00 | 0.00 | 0.00 | 38 | 1019.7 |
| 20260503191605 | 21 | 238 | 4.8 | 11.3 | 0.00 | 0.00 | 0.00 | 42 | 1020.0 |
| 20260503190058 | 21 | 209 | 6.4 | 20.9 | 0.00 | 0.00 | 0.00 | 40 | 1020.4 |
| 20260503184614 | 21 | 176 | 6.4 | 16.1 | 0.00 | 0.00 | 0.00 | 40 | 1020.7 |
| 20260503183049 | 20 | 278 | 0.0 | 16.1 | 0.00 | 0.00 | 0.00 | 43 | 1020.9 |
| 20260503181550 | 20 | 218 | 4.8 | 19.3 | 0.00 | 0.00 | 0.00 | 43 | 1021.0 |
| 20260503180046 | 20 | 248 | 1.6 | 9.7 | 0.00 | 0.00 | 0.00 | 42 | 1021.0 |
| 20260503174600 | 19 | 273 | 6.4 | 16.1 | 0.00 | 0.00 | 0.00 | 48 | 1021.4 |
| 20260503173043 | 19 | 219 | 0.0 | 14.5 | 0.00 | 0.00 | 0.00 | 44 | 1021.7 |
| 20260503171542 | 19 | 200 | 0.0 | 8.0 | 0.00 | 0.00 | 0.00 | 45 | 1022.0 |
| 20260503081538 | 4 | 302 | 0.0 | 0.0 | 0.00 | 0.00 | 0.00 | 94 | 1021.4 |
| 20260503071530 | 5 | 302 | 0.0 | 0.0 | 0.00 | 0.00 | 0.00 | 93 | 1021.2 |
| 20260503054519 | 6 | 302 | 0.0 | 0.0 | 0.00 | 0.00 | 0.00 | 90 | 1021.3 |
| 20260503053006 | 6 | 302 | 0.0 | 0.0 | 0.00 | 0.00 | 0.00 | 89 | 1021.4 |
| 20260503051503 | 6 | 302 | 0.0 | 0.0 | 0.00 | 0.00 | 0.00 | 88 | 1021.1 |
| 20260503050003 | 7 | 302 | 0.0 | 0.0 | 0.00 | 0.00 | 0.00 | 87 | 1021.0 |
| 20260503044605 | 7 | 302 | 0.0 | 0.0 | 0.00 | 0.00 | 0.00 | 87 | 1021.1 |
| 20260503043100 | 7 | 302 | 0.0 | 0.0 | 0.00 | 0.00 | 0.00 | 86 | 1021.0 |
| 20260503041557 | 8 | 302 | 0.0 | 0.0 | 0.00 | 0.00 | 0.00 | 83 | 1020.8 |
| 20260503040056 | 8 | 302 | 0.0 | 0.0 | 0.00 | 0.00 | 0.00 | 82 | 1020.6 |
| 20260503034557 | 9 | 302 | 0.0 | 0.0 | 0.00 | 0.00 | 0.00 | 80 | 1020.7 |